Content
SEND FEEDBACK

Daily
Averages
Monthly
Summary
United Kingdom

LONDON, ENGLAND


Home > Europe > United Kingdom > England
Elevation: 203 feet     Latitude: 51 09N     Longitude: 000 11W

WEATHER
 
SELECT A DAY
Number of Records: 297,525;   Date Range: 7/1/96 - 10/29/14
 
SHARE

PRINT THIS DATA

[ ← Previous Day ]
WEATHER ALMANAC - JANUARY 17, 2013
[ Next Day → ]
[ °C ]   °F
Weather ElementAverageHighLow
Temperature30.2 °F39.2 °F (1:20 pm)21.2 °F (8:20 am)
Dewpoint25.8 °F32 °F (2:20 pm)19.4 °F (7:50 am)
Humidity84.4 %93 % (12:50 am)65 % (1:20 pm)
Barometer30.03 in30.09 in (10:20 am)29.89 in (11:50 pm)
Wind Speed3.1 mph6.9 mph (9:20 pm)
Weather ElementAverage
Visibility3.7 mi
Wind DirectionENE (54.3 °)

Weather ElementTotal
Precipitation---
Heating Degree Days34.8 (Base 65)
Averaged from 47 records on January 17, 2013
WEATHER CONDITIONS BREAKOUT
WIND DIRECTION BREAKOUT
WEATHER BY HOUR - JANUARY 17, 2013
[ °C ]   °F
Local TimeTemperatureDewpointHumidityBarometerVisibilityWind DirectionWind SpeedGust SpeedPrecipitationEventsConditions
12:50 AM26.6 °F24.8 °F93 %30.04 in2.2 miCalmHaze
1:20 AM26.6 °F24.8 °F93 %30.04 in2.2 miVariable2.3 mphHaze
1:50 AM26.6 °F24.8 °F93 %30.04 in2.2 miCalmHaze
2:20 AM26.6 °F24.8 °F93 %30.04 in2.5 miCalmHaze
2:50 AM26.6 °F24.8 °F93 %30.06 in2.5 miCalmHaze
3:20 AM23.0 °F21.2 °F93 %30.06 in3.1 miVariable2.3 mphHaze
3:50 AM24.8 °F23.0 °F93 %30.06 in3.1 miVariable2.3 mphHaze
4:20 AM24.8 °F23.0 °F93 %30.06 in3.7 miCalm
4:50 AM23.0 °F21.2 °F93 %30.06 in3.1 miCalmHaze
5:20 AM23.0 °F21.2 °F93 %30.06 in2.8 miCalmHaze
5:50 AM23.0 °F21.2 °F93 %30.06 in2.8 miCalmHaze
6:20 AM23.0 °F21.2 °F93 %30.06 in2.5 miCalmHaze
6:50 AM23.0 °F21.2 °F93 %30.06 in2.2 miWNW (300°)4.6 mphHaze
7:20 AM23.0 °F21.2 °F93 %30.06 in2.5 miVariable2.3 mphHaze
7:50 AM23.0 °F19.4 °F86 %30.06 in2.2 miCalmHaze
8:20 AM21.2 °F19.4 °F93 %30.06 in2.2 miVariable2.3 mphHaze
8:50 AM23.0 °F19.4 °F86 %30.06 in2.8 miVariable2.3 mphHaze
9:20 AM26.6 °F23.0 °F86 %30.06 in2.8 miCalmHaze
9:50 AM28.4 °F24.8 °F86 %30.06 in2.5 miENE (70°)3.5 mphHaze
10:20 AM30.2 °F26.6 °F86 %30.09 in2.5 miVariable2.3 mphHaze
10:50 AM30.2 °F26.6 °F86 %30.09 in2.8 miVariable2.3 mphHaze
11:20 AM32.0 °F28.4 °F87 %30.06 in4.3 miEast (100°)3.5 mph
11:50 AM33.8 °F30.2 °F87 %30.06 in4.3 miCalm
12:20 PM37.4 °F30.2 °F75 %30.06 in5.0 miCalm
12:50 PM37.4 °F30.2 °F75 %30.06 in5.6 miEast (90°)3.5 mph
1:20 PM39.2 °F28.4 °F65 %30.04 inVariable3.5 mphClear
1:50 PM37.4 °F26.6 °F65 %30.04 inVariable2.3 mphClear
2:20 PM37.4 °F32.0 °F81 %30.04 in5.0 miENE (70°)4.6 mph
2:50 PM35.6 °F32.0 °F87 %30.04 in5.0 miENE (70°)5.8 mph
3:20 PM35.6 °F30.2 °F81 %30.04 in5.6 miEast (80°)4.6 mph
3:50 PM33.8 °F30.2 °F87 %30.01 in5.6 miEast (90°)4.6 mphPartly Cloudy
4:20 PM33.8 °F30.2 °F87 %30.01 in5.0 miEast (80°)4.6 mphPartly Cloudy
4:50 PM32.0 °F28.4 °F87 %30.01 in4.3 miEast (80°)5.8 mphPartly Cloudy
5:20 PM30.2 °F28.4 °F93 %30.01 in5.0 miEast (90°)5.8 mphPartly Cloudy
5:50 PM30.2 °F28.4 °F93 %30.01 in5.0 miEast (80°)4.6 mph
6:20 PM32.0 °F28.4 °F87 %30.01 in5.0 miEast (90°)3.5 mph
6:50 PM30.2 °F28.4 °F93 %30.01 in5.0 miEast (90°)3.5 mph
7:20 PM32.0 °F28.4 °F87 %29.98 in5.0 miENE (70°)5.8 mph
7:50 PM32.0 °F28.4 °F87 %29.98 in4.3 miENE (70°)5.8 mph
8:20 PM32.0 °F28.4 °F87 %29.98 in5.0 miEast (80°)4.6 mph
8:50 PM35.6 °F26.6 °F70 %29.98 inSE (130°)5.8 mphClear
9:20 PM35.6 °F26.6 °F70 %29.98 inSE (140°)6.9 mphClear
9:50 PM35.6 °F24.8 °F65 %29.95 inSE (140°)6.9 mphClear
10:20 PM35.6 °F24.8 °F65 %29.95 inSE (130°)5.8 mphClear
10:50 PM35.6 °F24.8 °F65 %29.92 inSE (130°)6.9 mphClear
11:20 PM35.6 °F24.8 °F65 %29.92 inSSE (150°)5.8 mphClear
11:50 PM35.6 °F24.8 °F65 %29.89 inSE (130°)6.9 mphClear
Hourly data recorded from EGKK, located miles away from London, England







STORIES FROM OUR PARTNERS